• în România
  • Lista ţărilor
  • Pe 7 zile
  • Temperatura apei
  • Hartă satelitară
  • Meteo pe hartă
  • Widget-uri
  • user-avatar
    Intrare

    Meteo pe oră la Rogatyy Prud

    Astăzi, 24 Mai, Joi

    Timp Temperatura Precipitaţii Vânt Presiune Umiditate
    00:00 +19°C° 0,2 mm 4 m/s 749 mmHg 82%
    01:00 +17°C° 0,2 mm 5 m/s 749 mmHg 83%
    02:00 +17°C° 0,2 mm 5 m/s 748 mmHg 85%
    03:00 +16°C° 0,2 mm 5 m/s 748 mmHg 86%
    04:00 +16°C° 0 mm 5 m/s 748 mmHg 86%
    05:00 +16°C° 0 mm 5 m/s 748 mmHg 87%
    06:00 +17°C° 0 mm 4 m/s 747 mmHg 87%
    07:00 +18°C° 0 mm 4 m/s 747 mmHg 84%
    08:00 +19°C° 0 mm 3 m/s 747 mmHg 81%
    09:00 +20°C° 0 mm 2 m/s 747 mmHg 78%
    10:00 +21°C° 0 mm 3 m/s 747 mmHg 75%
    11:00 +22°C° 0 mm 3 m/s 746 mmHg 72%
    12:00 +25°C° 0 mm 3 m/s 746 mmHg 69%
    13:00 +25°C° 0 mm 3 m/s 746 mmHg 69%
    14:00 +25°C° 0 mm 3 m/s 746 mmHg 70%
    15:00 +26°C° 0 mm 3 m/s 745 mmHg 70%
    16:00 +25°C° 0,1 mm 3 m/s 745 mmHg 75%
    17:00 +24°C° 0,1 mm 3 m/s 745 mmHg 79%
    18:00 +22°C° 0,1 mm 4 m/s 744 mmHg 84%
    19:00 +21°C° 0,5 mm 5 m/s 744 mmHg 85%
    20:00 +20°C° 0,5 mm 5 m/s 744 mmHg 86%
    21:00 +20°C° 0,5 mm 6 m/s 744 mmHg 87%
    22:00 +19°C° 0,3 mm 6 m/s 744 mmHg 87%
    23:00 +19°C° 0,3 mm 6 m/s 743 mmHg 87%

    Mâine, 25 Mai, Vineri

    Timp Temperatura Precipitaţii Vânt Presiune Umiditate
    00:00 +19°C° 0,3 mm 6 m/s 743 mmHg 87%
    01:00 +17°C° 0,1 mm 6 m/s 743 mmHg 87%
    02:00 +17°C° 0,1 mm 6 m/s 743 mmHg 86%
    03:00 +17°C° 0,1 mm 6 m/s 743 mmHg 86%
    04:00 +17°C° 0,1 mm 6 m/s 743 mmHg 86%
    05:00 +17°C° 0,1 mm 6 m/s 743 mmHg 87%
    06:00 +17°C° 0,1 mm 6 m/s 744 mmHg 87%
    07:00 +17°C° 0,1 mm 7 m/s 744 mmHg 86%
    08:00 +17°C° 0,1 mm 7 m/s 745 mmHg 84%
    09:00 +17°C° 0,1 mm 8 m/s 745 mmHg 83%
    10:00 +17°C° 0,1 mm 8 m/s 746 mmHg 81%
    11:00 +17°C° 0,1 mm 9 m/s 746 mmHg 79%
    12:00 +18°C° 0,1 mm 9 m/s 747 mmHg 77%
    13:00 +18°C° 0 mm 9 m/s 747 mmHg 74%
    14:00 +18°C° 0 mm 9 m/s 748 mmHg 70%
    15:00 +18°C° 0 mm 9 m/s 748 mmHg 66%
    16:00 +17°C° 0 mm 9 m/s 749 mmHg 66%
    17:00 +16°C° 0 mm 9 m/s 749 mmHg 65%
    18:00 +15°C° 0 mm 8 m/s 750 mmHg 64%
    19:00 +12°C° 0 mm 8 m/s 751 mmHg 63%
    20:00 +11°C° 0 mm 8 m/s 751 mmHg 61%
    21:00 +10°C° 0 mm 7 m/s 752 mmHg 60%
    22:00 +9°C° 0 mm 7 m/s 753 mmHg 59%
    23:00 +8°C° 0 mm 6 m/s 753 mmHg 59%

    Poimâine, 26 Mai, Sâmbătă

    Timp Temperatura Precipitaţii Vânt Presiune Umiditate
    00:00 +8°C° 0 mm 6 m/s 754 mmHg 59%
    01:00 +7°C° 0 mm 6 m/s 754 mmHg 59%
    02:00 +7°C° 0 mm 6 m/s 755 mmHg 59%
    03:00 +6°C° 0 mm 5 m/s 755 mmHg 60%
    04:00 +6°C° 0 mm 5 m/s 756 mmHg 62%
    05:00 +5°C° 0 mm 6 m/s 756 mmHg 64%
    06:00 +7°C° 0 mm 6 m/s 757 mmHg 67%
    07:00 +8°C° 0 mm 6 m/s 757 mmHg 63%
    08:00 +9°C° 0 mm 7 m/s 758 mmHg 58%
    09:00 +10°C° 0 mm 7 m/s 758 mmHg 54%
    10:00 +11°C° 0 mm 7 m/s 758 mmHg 53%
    11:00 +12°C° 0 mm 7 m/s 759 mmHg 52%
    12:00 +14°C° 0 mm 7 m/s 759 mmHg 51%
    13:00 +14°C° 0 mm 7 m/s 759 mmHg 51%
    14:00 +15°C° 0 mm 6 m/s 759 mmHg 51%
    15:00 +15°C° 0 mm 6 m/s 759 mmHg 51%
    16:00 +15°C° 0 mm 5 m/s 759 mmHg 55%
    17:00 +15°C° 0 mm 5 m/s 759 mmHg 59%
    18:00 +14°C° 0 mm 4 m/s 759 mmHg 62%
    19:00 +13°C° 0 mm 4 m/s 759 mmHg 66%
    20:00 +11°C° 0 mm 3 m/s 759 mmHg 69%
    21:00 +9°C° 0 mm 3 m/s 760 mmHg 73%
    22:00 +9°C° 0 mm 3 m/s 760 mmHg 73%
    23:00 +8°C° 0 mm 2 m/s 760 mmHg 73%

    27 Mai, Duminică

    Timp Temperatura Precipitaţii Vânt Presiune Umiditate
    00:00 +7°C° 0 mm 2 m/s 760 mmHg 73%
    01:00 +7°C° 0 mm 2 m/s 760 mmHg 74%
    02:00 +7°C° 0 mm 2 m/s 761 mmHg 74%
    03:00 +7°C° 0 mm 1 m/s 761 mmHg 75%
    04:00 +8°C° 0 mm 1 m/s 761 mmHg 73%
    05:00 +9°C° 0 mm 1 m/s 761 mmHg 72%
    06:00 +10°C° 0 mm 1 m/s 761 mmHg 71%
    07:00 +12°C° 0 mm 1 m/s 761 mmHg 65%
    08:00 +14°C° 0 mm 1 m/s 761 mmHg 60%
    09:00 +15°C° 0 mm 1 m/s 761 mmHg 55%
    10:00 +16°C° 0 mm 1 m/s 760 mmHg 52%
    11:00 +19°C° 0 mm 1 m/s 760 mmHg 49%
    12:00 +20°C° 0 mm 1 m/s 760 mmHg 46%
    13:00 +20°C° 0 mm 1 m/s 759 mmHg 46%
    14:00 +21°C° 0 mm 1 m/s 759 mmHg 46%
    15:00 +21°C° 0 mm 1 m/s 758 mmHg 46%
    16:00 +21°C° 0 mm 1 m/s 758 mmHg 50%
    17:00 +21°C° 0 mm 1 m/s 757 mmHg 54%
    18:00 +21°C° 0 mm 1 m/s 757 mmHg 58%
    19:00 +18°C° 0 mm 2 m/s 756 mmHg 62%
    20:00 +16°C° 0 mm 2 m/s 756 mmHg 66%
    21:00 +14°C° 0 mm 2 m/s 756 mmHg 70%
    22:00 +13°C° 0 mm 2 m/s 756 mmHg 72%
    23:00 +13°C° 0 mm 2 m/s 756 mmHg 73%

    28 Mai, Luni

    Timp Temperatura Precipitaţii Vânt Presiune Umiditate
    00:00 +11°C° 0 mm 3 m/s 756 mmHg 75%
    01:00 +11°C° 0 mm 3 m/s 755 mmHg 76%
    02:00 +10°C° 0 mm 3 m/s 755 mmHg 77%
    03:00 +10°C° 0 mm 3 m/s 755 mmHg 78%
    04:00 +11°C° 0 mm 3 m/s 755 mmHg 78%
    05:00 +11°C° 0 mm 3 m/s 754 mmHg 79%
    06:00 +12°C° 0 mm 4 m/s 754 mmHg 79%
    07:00 +14°C° 0 mm 4 m/s 754 mmHg 76%
    08:00 +17°C° 0 mm 4 m/s 754 mmHg 72%
    09:00 +19°C° 0 mm 4 m/s 754 mmHg 69%
    10:00 +20°C° 0,1 mm 4 m/s 753 mmHg 66%
    11:00 +21°C° 0,1 mm 5 m/s 753 mmHg 63%
    12:00 +22°C° 0,1 mm 5 m/s 753 mmHg 60%
    13:00 +21°C° 0,3 mm 5 m/s 753 mmHg 64%
    14:00 +20°C° 0,3 mm 5 m/s 753 mmHg 68%
    15:00 +20°C° 0,3 mm 4 m/s 752 mmHg 73%
    16:00 +20°C° 0 mm 4 m/s 753 mmHg 71%
    17:00 +20°C° 0 mm 4 m/s 753 mmHg 70%
    18:00 +20°C° 0 mm 4 m/s 753 mmHg 68%
    19:00 +18°C° 0 mm 4 m/s 753 mmHg 70%
    20:00 +14°C° 0 mm 4 m/s 754 mmHg 72%
    21:00 +12°C° 0 mm 3 m/s 754 mmHg 74%
    22:00 +11°C° 0 mm 3 m/s 755 mmHg 75%
    23:00 +10°C° 0 mm 3 m/s 755 mmHg 76%

    29 Mai, Marţi

    Timp Temperatura Precipitaţii Vânt Presiune Umiditate
    00:00 +9°C° 0 mm 2 m/s 755 mmHg 77%
    01:00 +8°C° 0 mm 2 m/s 756 mmHg 76%
    02:00 +8°C° 0 mm 2 m/s 756 mmHg 75%
    03:00 +7°C° 0 mm 2 m/s 756 mmHg 75%
    04:00 +8°C° 0 mm 2 m/s 756 mmHg 74%
    05:00 +8°C° 0 mm 2 m/s 756 mmHg 73%
    06:00 +9°C° 0 mm 2 m/s 757 mmHg 72%
    07:00 +12°C° 0 mm 2 m/s 756 mmHg 65%
    08:00 +13°C° 0 mm 3 m/s 756 mmHg 59%
    09:00 +16°C° 0 mm 3 m/s 756 mmHg 52%
    10:00 +17°C° 0 mm 3 m/s 756 mmHg 51%
    11:00 +18°C° 0 mm 4 m/s 756 mmHg 51%
    12:00 +19°C° 0 mm 4 m/s 755 mmHg 50%
    13:00 +20°C° 0 mm 5 m/s 755 mmHg 51%
    14:00 +20°C° 0 mm 5 m/s 755 mmHg 52%
    15:00 +21°C° 0 mm 6 m/s 754 mmHg 53%
    16:00 +20°C° 0 mm 5 m/s 754 mmHg 58%
    17:00 +20°C° 0 mm 4 m/s 754 mmHg 63%
    18:00 +20°C° 0 mm 3 m/s 753 mmHg 67%
    19:00 +18°C° 0 mm 3 m/s 753 mmHg 72%
    20:00 +16°C° 0 mm 3 m/s 753 mmHg 77%
    21:00 +14°C° 0 mm 3 m/s 753 mmHg 81%
    22:00 +13°C° 0 mm 3 m/s 753 mmHg 82%
    23:00 +13°C° 0 mm 3 m/s 752 mmHg 83%
    Arată mai mult